Location: Unspecified
(44.0704°N, 88.6889°W)
Time: 12:35:45
(UTC+02:00)

Okean 3 - Visible Passes

Search period start: 20 August 2018 00:00
Search period end: 30 August 2018 00:00
Orbit: 578 x 601 km, 82.5° (Epoch: 19 August)

Date Brightness Start Highest point End Pass type
(mag) Time Alt. Az. Time Alt. Az. Time Alt. Az.
20 Aug 3.4 03:27:05 10° N 03:31:23 80° E 03:35:37 10° S visible
21 Aug 3.9 03:35:10 10° NNW 03:39:25 68° W 03:43:37 10° S visible
22 Aug 4.7 03:43:20 10° NNW 03:47:25 45° W 03:51:27 10° SSW visible
23 Aug 5.5 03:51:39 10° NNW 03:55:23 30° W 03:59:05 10° SSW visible
24 Aug 6.1 04:00:07 10° NW 04:03:19 21° W 04:06:29 10° SW visible
25 Aug 6.5 04:08:54 10° NW 04:11:12 14° W 04:13:29 10° WSW visible
29 Aug 5.6 03:02:44 10° NNW 03:06:32 32° W 03:10:16 10° SSW visible
